{"data":{"norad_id":67625,"epoch":"2026-05-25T01:33:20.074752Z","epoch_age_seconds":80116,"freshness":"FRESH","line1":"1 67625U 26020J   26145.06481568  .00036929  00000+0  13433-2 0  9996","line2":"2 67625  43.0008  68.5046 0000649 233.0147 127.0645 15.27615924 17792","mean_motion":15.27615924,"eccentricity":6.49e-5,"inclination_deg":43.0008,"raan_deg":68.5046,"arg_perigee_deg":233.0147,"mean_anomaly_deg":127.0645,"bstar":0.0013433,"rev_number":1779,"period_min":94.264531900755,"perigee_km":482.49624477159,"apogee_km":483.38681276462,"semimajor_km":6861.0785287681,"source":"CELESTRAK","updated_at":"2026-05-25T13:38:21.650775Z"}}